Weather History for Shaw AFB, SC

Change the Weather History Date:

Monday, February 18, 2013

  Actual Average Record
Temperature  
Mean Temperature 40 °F -  
Max Temperature 56 °F 58 °F 79 °F (2011)
Min Temperature 23 °F 36 °F 23 °F (2013)
Degree Days  
Heating Degree Days 26    
Moisture  
Dew Point 18 °F    
Average Humidity 45    
Maximum Humidity 77    
Minimum Humidity 19    
Precipitation  
Precipitation 0.00 in - - ()
Sea Level Pressure  
Sea Level Pressure 30.34 in    
Wind  
Wind Speed 3 mph (SSE)    
Max Wind Speed 12 mph    
Max Gust Speed -    
Visibility 10 miles    
Events      
Averages and records for this station are not official NWS values.
T = Trace of Precipitation, MM = Missing Value Source: NWS Daily Summary

Daily Weather History Graph

Daily Weather History Graph

Search for Another Location

Airport:

Trip Planner

Search our weather history database for the weather conditions in past years. The results will help you decide how hot, cold, wet, or windy it might be!

Date:

Astronomy

Feb. 18, 2013 Rise Set
Actual Time 7:03 AM EST 6:08 PM EST
Civil Twilight 6:37 AM EST 6:34 PM EST
Nautical Twilight 6:08 AM EST 7:03 PM EST
Astronomical Twilight 5:39 AM EST 7:32 PM EST
Moon 12:01 PM EST (2/18) 1:34 AM EST (2/18)
Length of Visible Light 11h 56m
Length of Day
11h 05m
First Quarter, 58% of the Moon is Illuminated
Feb 18
First Quarter
Feb 25
Full
Mar 4
Last Quarter
Mar 11
New
Mar 19
First Quarter

Hourly Weather History & Observations

Time (EST) Temp. Windchill Dew Point Humidity Pressure Visibility Wind Dir Wind Speed Gust Speed Precip Events Conditions
12:59 AM 27.0 °F - 17.6 °F 68% 30.31 in 10.0 mi Calm Calm - N/A   Clear
1:59 AM 26.2 °F - 19.9 °F 77% 30.32 in 10.0 mi Calm Calm - N/A   Clear
2:58 AM 26.2 °F - 19.2 °F 75% 30.33 in 10.0 mi Calm Calm - N/A   Clear
3:58 AM 25.9 °F - 18.0 °F 72% 30.33 in 10.0 mi Calm Calm - N/A   Clear
4:59 AM 25.9 °F - 16.2 °F 67% 30.35 in 10.0 mi Calm Calm - N/A   Clear
5:58 AM 23.4 °F - 15.4 °F 72% 30.36 in 10.0 mi Calm Calm - N/A   Clear
6:58 AM 23.9 °F - 17.1 °F 75% 30.38 in 10.0 mi Calm Calm - N/A   Clear
7:58 AM 25.7 °F - 18.7 °F 75% 30.40 in 10.0 mi Calm Calm - N/A   Clear
8:58 AM 35.8 °F - 24.3 °F 63% 30.41 in 10.0 mi Calm Calm - N/A   Clear
9:59 AM 44.1 °F - 12.2 °F 28% 30.42 in 10.0 mi SSE 2.3 mph - N/A   Clear
10:58 AM 46.9 °F - 7.3 °F 20% 30.41 in 10.0 mi ENE 3.5 mph - N/A   Clear
11:58 AM 50.5 °F - 10.0 °F 20% 30.40 in 10.0 mi Variable 2.3 mph - N/A   Clear
12:58 PM 53.1 °F - 11.3 °F 19% 30.37 in 10.0 mi Variable 2.3 mph - N/A   Clear
1:58 PM 56.3 °F - 13.6 °F 19% 30.34 in 10.0 mi South 10.4 mph - N/A   Clear
2:58 PM 56.7 °F - 15.8 °F 20% 30.33 in 10.0 mi South 11.5 mph - N/A   Clear
3:58 PM 56.1 °F - 15.8 °F 21% 30.31 in 10.0 mi SSE 8.1 mph - N/A   Clear
4:58 PM 54.5 °F - 16.5 °F 22% 30.31 in 10.0 mi SSE 10.4 mph - N/A   Clear
5:58 PM 52.0 °F - 18.0 °F 26% 30.31 in 10.0 mi SSE 8.1 mph - N/A   Clear
6:58 PM 46.4 °F 43.5 °F 20.8 °F 36% 30.31 in 9.0 mi SE 5.8 mph - N/A   Clear
7:13 PM 46.4 °F 41.9 °F 21.2 °F 37% 30.31 in 6.0 mi SSE 9.2 mph - N/A   Haze
7:18 PM 46.4 °F 41.9 °F 21.2 °F 37% 30.31 in 6.0 mi SSE 9.2 mph - N/A   Haze
7:23 PM 46.4 °F 41.9 °F 21.2 °F 37% 30.31 in 8.0 mi SSE 9.2 mph - N/A   Clear
7:28 PM 46.4 °F 41.9 °F 21.2 °F 37% 30.31 in 10.0 mi SSE 9.2 mph - N/A   Clear
7:58 PM 46.0 °F 41.9 °F 21.0 °F 37% 30.32 in 10.0 mi SSE 8.1 mph - N/A   Clear
8:58 PM 43.2 °F 39.7 °F 21.7 °F 43% 30.31 in 10.0 mi SSE 5.8 mph - N/A   Clear
9:58 PM 40.6 °F 38.6 °F 21.4 °F 46% 30.29 in 10.0 mi SSE 3.5 mph - N/A   Clear
10:58 PM 37.6 °F - 23.9 °F 58% 30.28 in 10.0 mi Calm Calm - N/A   Clear
11:58 PM 37.6 °F - 25.5 °F 62% 30.27 in 10.0 mi Calm Calm - N/A   Clear